[[{"header":{"parameterUnit":"m.s-1","parameterCategory":1,"la1":30.2992,"la2":30.254,"lo1":-89.0895,"lo2":-89.0443,"dy":0.0025,"dx":0.0025,"nx":19,"ny":19,"refTime":"2026-05-18T09:00:00:Z","depth":0,"parameterNumber":2,"parameterNumberName":"U-component_of_WINDS"},"data":[0,0,0,-4.5696,-4.5699,-4.5834,-4.5834,-4.6013,-4.6015,0,0,0,0,0,0,0,0,0,0,0,-4.5662,-4.5664,-4.5696,-4.57,-4.5834,-4.5834,-4.6013,-4.6015,0,0,0,0,0,0,0,0,0,0,0,-4.5661,-4.5663,-4.5665,-4.57,-4.5834,-4.5834,-4.6013,-4.5908,0,0,0,0,0,0,0,0,0,0,-4.5777,-4.5751,-4.5663,-4.5665,-4.5701,-4.5834,-4.5834,-4.5903,-4.5915,-4.5956,0,-4.5995,0,-4.6008,-4.6028,-4.6028,0,0,0,-4.5695,-4.5741,-4.5772,-4.5665,-4.5702,-4.5833,-4.5772,-4.591,-4.5923,-4.5972,-4.5998,-4.6004,-4.6011,-4.6029,-4.603,-4.6285,-4.6286,0,0,-4.5688,-4.5689,-4.5763,-4.5781,-4.5762,-4.5768,-4.5776,-4.5918,-4.5945,-4.5998,-4.6008,-4.6014,-4.603,-4.6032,-4.6284,-4.6285,0,0,0,-4.5669,-4.5684,-4.5712,-4.5774,-4.5798,-4.5772,-4.5782,-4.5939,-4.5948,-4.601,-4.6016,-4.6031,-4.6034,-4.6282,-4.6284,-4.6354,0,0,0,-4.5665,-4.5673,-4.5709,-4.5711,-4.5796,-4.587,-4.58,-4.5938,-4.5954,-4.6015,-4.6031,-4.6035,-4.628,-4.6283,-4.6349,-4.6386,0,0,0,-4.5651,-4.5672,-4.5693,-4.571,-4.5768,-4.5868,-4.5885,-4.5942,-4.5959,-4.6029,-4.6036,-4.6279,-4.6283,-4.6344,-4.6378,-4.6452,0,0,0,-4.5637,-4.5753,-4.5694,-4.5826,-4.5767,-4.5911,-4.5884,-4.5991,-4.606,-4.6032,-4.6281,-4.6284,-4.6342,-4.6373,-4.6447,-4.6513,-4.6542,0,0,-4.5783,-4.577,-4.5848,-4.58,-4.5954,-4.5891,-4.6056,-4.6117,-4.6122,-4.623,-4.6236,-4.635,-4.6377,-4.6451,-4.6703,-4.6726,0,0,0,-4.5895,-4.595,-4.5991,-4.6057,-4.6108,-4.6154,-4.619,-4.6213,-4.6305,-4.6178,-4.6398,-4.6414,-4.6457,-4.6489,-4.6508,-4.6544,-4.6299,-4.6299,-4.6298,-4.6101,-4.6104,-4.6232,-4.625,-4.6315,-4.6352,-4.6404,-4.644,-4.6423,-4.6475,-4.6506,-4.6659,-4.6696,-4.671,-4.6748,-4.6543,-4.6543,-4.6544,-4.6544,-4.6315,-4.6393,-4.6369,-4.6484,-4.6485,-4.6582,-4.6622,-4.6607,-4.6696,-4.6636,-4.6674,-4.6605,-4.6735,-4.6768,-4.6549,-4.6548,-4.6548,-4.6547,-4.6547,-4.6448,-4.6486,-4.6513,-4.6609,-4.6683,-4.6698,-4.6786,-4.6784,-4.6783,-4.6821,-4.6853,-4.6851,-4.6848,-4.6837,-4.6837,-4.6838,-4.6838,-4.6839,-4.6839,-4.6575,-4.6604,-4.6678,-4.6743,-4.6785,-4.6841,-4.6881,-4.6922,-4.6967,-4.6959,-4.6959,-4.6935,-4.6749,-4.67,-4.6847,-4.6846,-4.6845,-4.6844,-4.6843,-4.6786,-4.6739,-4.6853,-4.6896,-4.6972,-4.7045,-4.7043,-4.7128,-4.7162,-4.7205,-4.7175,-4.7038,-4.7023,-4.7008,-4.6968,-4.7175,-4.7175,-4.7175,-4.7175,-4.6897,-4.6891,-4.7008,-4.7076,-4.7143,-4.7153,-4.7282,-4.7315,-4.7341,-4.7362,-4.7332,-4.728,-4.7265,-4.7259,-4.7239,-4.7201,-4.7463,-4.7463,-4.7464,-4.7026,-4.7027,-4.7136,-4.7163,-4.7222,-4.7274,-4.7394,-4.7473,-4.7493,-4.7475,-4.7378,-4.7366,-4.7281,-4.7254,-4.7231,-4.7199,-4.7129,0,0]},{"header":{"parameterUnit":"m.s-1","parameterCategory":1,"la1":30.2992,"la2":30.254,"lo1":-89.0895,"lo2":-89.0443,"dy":0.0025,"dx":0.0025,"nx":19,"ny":19,"refTime":"2026-05-18T09:00:00:Z","depth":0,"parameterNumber":3,"parameterNumberName":"V-component_of_WINDS"},"data":[0,0,0,2.9227,2.9228,2.9302,2.9302,2.939,2.9391,0,0,0,0,0,0,0,0,0,0,0,2.9203,2.9204,2.9227,2.9229,2.9302,2.9302,2.939,2.9391,0,0,0,0,0,0,0,0,0,0,0,2.9203,2.9204,2.9204,2.9229,2.9302,2.9302,2.939,2.9336,0,0,0,0,0,0,0,0,0,0,2.9266,2.9243,2.9204,2.9204,2.9229,2.9302,2.9302,2.9334,2.9339,2.9355,0,2.937,0,2.9382,2.9397,2.9397,0,0,0,2.9229,2.9238,2.9259,2.9205,2.923,2.9301,2.9269,2.9337,2.9343,2.9363,2.9371,2.9375,2.9384,2.9397,2.9398,2.9492,2.9492,0,0,2.9225,2.9215,2.9255,2.9264,2.9254,2.9267,2.9271,2.9341,2.9349,2.9372,2.9377,2.9385,2.9398,2.9398,2.9491,2.9492,0,0,0,2.9213,2.9212,2.9232,2.926,2.9274,2.9269,2.9274,2.9346,2.9353,2.9378,2.9386,2.9398,2.9399,2.9491,2.9492,2.9504,0,0,0,2.9211,2.9205,2.923,2.9225,2.9272,2.9311,2.9277,2.9348,2.9357,2.9386,2.9398,2.94,2.9491,2.9491,2.9503,2.9511,0,0,0,2.9199,2.9204,2.9214,2.9224,2.9255,2.931,2.9322,2.935,2.9362,2.9397,2.94,2.949,2.9491,2.9502,2.951,2.9535,0,0,0,2.9183,2.9221,2.9214,2.926,2.9255,2.9318,2.9321,2.9368,2.9399,2.9399,2.9491,2.9492,2.9501,2.9508,2.9534,2.9556,2.9564,0,0,2.9225,2.9226,2.9254,2.925,2.9312,2.9307,2.937,2.9407,2.9418,2.9466,2.9469,2.9503,2.9509,2.9535,2.961,2.9616,0,0,0,2.9264,2.9284,2.9303,2.9334,2.9365,2.9393,2.9422,2.9436,2.9478,2.9442,2.9519,2.9523,2.9538,2.9549,2.9555,2.9569,2.9496,2.9496,2.9496,2.9308,2.9324,2.9372,2.9397,2.9427,2.9458,2.9484,2.9508,2.9511,2.953,2.9544,2.9588,2.9601,2.9605,2.962,2.9556,2.9556,2.9556,2.9556,2.9373,2.9405,2.9413,2.9462,2.9478,2.9519,2.9551,2.9552,2.9592,2.9578,2.9592,2.9576,2.9612,2.9626,2.9557,2.9557,2.9557,2.9557,2.9557,2.9406,2.9424,2.9442,2.9492,2.9527,2.955,2.959,2.9601,2.9611,2.9626,2.9644,2.9644,2.9646,2.9633,2.9633,2.9634,2.9634,2.9634,2.9634,2.9432,2.9453,2.9486,2.9525,2.9548,2.958,2.9613,2.9636,2.9664,2.9669,2.9669,2.9672,2.9612,2.9598,2.9636,2.9636,2.9636,2.9635,2.9635,2.9495,2.9484,2.9535,2.9558,2.9606,2.9642,2.9657,2.9702,2.9722,2.9742,2.9742,2.9696,2.9696,2.9692,2.968,2.9738,2.9738,2.9738,2.9738,2.9524,2.9526,2.9583,2.962,2.9658,2.9677,2.9735,2.9761,2.9786,2.98,2.9793,2.9778,2.9773,2.9776,2.977,2.976,2.9836,2.9836,2.9836,2.9564,2.9571,2.9618,2.9646,2.9684,2.9717,2.9772,2.9814,2.9839,2.9841,2.9811,2.9807,2.9783,2.9774,2.9775,2.9765,2.9746,0,0]}]]